Time,TemperatureF,DewpointF,PressureIn,WindDirection,WindDirectionDegrees,WindSpeedMPH,WindSpeedGustMPH,Humidity,HourlyPrecipIn,Conditions,Clouds,dailyrainin,SoftwareType,DateUTC
2013-02-01 00:04:00,52.0,32.4,29.99,North,0,0.0,2.9,47,0.00,,---,0.00,VWS V13.01,2013-01-31 22:04:00,
2013-02-01 00:09:00,52.0,32.4,29.98,SSE,157,2.2,2.9,47,0.00,,---,0.00,VWS V13.01,2013-01-31 22:09:00,
2013-02-01 00:14:00,52.0,32.4,29.99,South,180,2.5,3.8,47,0.00,,---,0.00,VWS V13.01,2013-01-31 22:14:00,
2013-02-01 00:19:00,51.8,32.2,29.98,ESE,112,0.0,3.4,47,0.00,,---,0.00,VWS V13.01,2013-01-31 22:19:00,
2013-02-01 00:24:00,51.6,32.0,29.99,East,90,2.2,2.2,47,0.00,,---,0.00,VWS V13.01,2013-01-31 22:24:00,
2013-02-01 00:29:00,51.6,32.0,29.99,ESE,112,2.5,4.3,47,0.00,,---,0.00,VWS V13.01,2013-01-31 22:29:00,
2013-02-01 00:34:00,51.6,32.0,29.99,ESE,112,4.3,4.3,47,0.00,,---,0.00,VWS V13.01,2013-01-31 22:34:00,
2013-02-01 00:39:00,51.8,32.2,29.99,SE,135,5.6,6.7,47,0.00,,---,0.00,VWS V13.01,2013-01-31 22:39:00,
2013-02-01 00:44:00,51.8,31.7,29.98,East,90,3.1,3.1,46,0.00,,---,0.00,VWS V13.01,2013-01-31 22:44:00,
2013-02-01 00:49:00,52.0,31.9,29.99,ENE,67,9.6,9.6,46,0.00,,---,0.00,VWS V13.01,2013-01-31 22:49:00,
2013-02-01 00:55:00,52.0,31.9,29.99,ESE,112,9.8,9.8,46,0.00,,---,0.00,VWS V13.01,2013-01-31 22:55:00,
2013-02-01 01:00:00,52.0,31.9,29.99,SSE,157,4.7,6.3,46,0.00,,---,0.00,VWS V13.01,2013-01-31 23:00:00,
2013-02-01 01:05:00,52.0,31.9,30.00,East,90,0.0,3.8,46,0.00,,---,0.00,VWS V13.01,2013-01-31 23:05:00,
2013-02-01 01:10:00,52.0,31.9,30.01,SE,135,0.0,2.5,46,0.00,,---,0.00,VWS V13.01,2013-01-31 23:10:00,
2013-02-01 01:15:00,51.8,31.7,30.01,SSE,157,0.0,3.4,46,0.00,,---,0.00,VWS V13.01,2013-01-31 23:15:00,
2013-02-01 01:20:00,51.8,31.7,30.01,West,270,0.0,2.9,46,0.00,,---,0.00,VWS V13.01,2013-01-31 23:20:00,
2013-02-01 01:25:00,51.6,31.5,30.01,NW,315,4.7,4.7,46,0.00,,---,0.00,VWS V13.01,2013-01-31 23:25:00,
2013-02-01 01:30:00,51.6,31.5,30.01,SSE,157,0.0,2.0,46,0.00,,---,0.00,VWS V13.01,2013-01-31 23:30:00,
2013-02-01 01:35:00,51.6,31.5,30.02,South,180,0.0,5.8,46,0.00,,---,0.00,VWS V13.01,2013-01-31 23:35:00,
2013-02-01 01:40:00,51.6,31.5,30.02,WNW,292,4.7,7.2,46,0.00,,---,0.00,VWS V13.01,2013-01-31 23:40:00,
2013-02-01 01:45:00,51.6,31.5,30.02,South,180,3.1,12.1,46,0.00,,---,0.00,VWS V13.01,2013-01-31 23:45:00,
2013-02-01 01:50:00,51.6,32.0,30.02,SSW,202,5.1,8.1,47,0.00,,---,0.00,VWS V13.01,2013-01-31 23:50:00,
2013-02-01 01:55:00,51.6,32.0,30.03,SSE,157,4.0,8.1,47,0.00,,---,0.00,VWS V13.01,2013-01-31 23:55:00,
2013-02-01 02:00:00,51.6,32.0,30.03,WSW,247,2.5,2.5,47,0.00,,---,0.00,VWS V13.01,2013-02-01 00:00:00,
2013-02-01 02:05:00,51.6,32.0,30.02,WSW,247,0.0,4.9,47,0.00,,---,0.00,VWS V13.01,2013-02-01 00:05:00,
2013-02-01 02:10:00,51.4,31.9,30.03,North,0,3.1,4.5,47,0.00,,---,0.00,VWS V13.01,2013-02-01 00:10:00,
2013-02-01 02:15:00,51.4,32.4,30.02,North,0,2.0,3.8,48,0.00,,---,0.00,VWS V13.01,2013-02-01 00:15:00,
2013-02-01 02:20:00,51.4,31.9,30.01,NW,315,1.8,3.6,47,0.00,,---,0.00,VWS V13.01,2013-02-01 00:20:00,
2013-02-01 02:25:00,51.4,31.9,30.01,SSE,157,0.0,1.8,47,0.00,,---,0.00,VWS V13.01,2013-02-01 00:25:00,
2013-02-01 02:30:00,51.3,32.3,30.01,ENE,67,1.6,2.7,48,0.00,,---,0.00,VWS V13.01,2013-02-01 00:30:00,
2013-02-01 02:35:00,51.1,32.1,30.01,ESE,112,0.0,1.3,48,0.00,,---,0.00,VWS V13.01,2013-02-01 00:35:00,
2013-02-01 02:40:00,50.9,31.9,30.01,NE,45,0.9,2.0,48,0.00,,---,0.00,VWS V13.01,2013-02-01 00:40:00,
2013-02-01 02:45:00,50.7,31.7,30.01,East,90,3.8,4.7,48,0.00,,---,0.00,VWS V13.01,2013-02-01 00:45:00,
2013-02-01 02:50:00,50.7,31.7,30.01,ENE,67,2.0,4.9,48,0.00,,---,0.00,VWS V13.01,2013-02-01 00:50:00,
2013-02-01 02:55:00,50.7,31.7,30.01,NNE,22,0.0,4.7,48,0.00,,---,0.00,VWS V13.01,2013-02-01 00:55:00,
2013-02-01 03:00:00,50.7,31.7,30.00,North,0,0.9,1.1,48,0.00,,---,0.00,VWS V13.01,2013-02-01 01:00:00,
2013-02-01 03:05:00,50.7,31.7,30.00,North,0,4.5,8.7,48,0.00,,---,0.00,VWS V13.01,2013-02-01 01:05:00,
2013-02-01 03:10:00,50.7,31.2,29.99,NNW,337,6.0,10.5,47,0.00,,---,0.00,VWS V13.01,2013-02-01 01:10:00,
2013-02-01 03:15:00,50.7,31.2,29.98,North,0,6.3,6.3,47,0.00,,---,0.00,VWS V13.01,2013-02-01 01:15:00,
2013-02-01 03:20:00,50.7,31.2,29.99,NNW,337,2.7,2.7,47,0.00,,---,0.00,VWS V13.01,2013-02-01 01:20:00,
2013-02-01 03:25:00,50.7,31.2,29.99,WNW,292,5.4,9.2,47,0.00,,---,0.00,VWS V13.01,2013-02-01 01:25:00,
2013-02-01 03:30:00,50.9,30.9,29.99,NW,315,9.6,15.2,46,0.00,,---,0.00,VWS V13.01,2013-02-01 01:30:00,
2013-02-01 03:35:00,51.1,31.1,30.00,SW,225,0.0,2.2,46,0.00,,---,0.00,VWS V13.01,2013-02-01 01:35:00,
2013-02-01 03:41:00,51.1,31.1,30.00,ESE,112,0.0,1.8,46,0.00,,---,0.00,VWS V13.01,2013-02-01 01:41:00,
2013-02-01 03:46:00,51.1,31.1,30.00,NE,45,0.0,4.0,46,0.00,,---,0.00,VWS V13.01,2013-02-01 01:46:00,
2013-02-01 03:51:00,51.1,31.6,30.01,East,90,0.0,2.2,47,0.00,,---,0.00,VWS V13.01,2013-02-01 01:51:00,
2013-02-01 03:56:00,50.9,31.4,30.01,SSW,202,1.3,2.0,47,0.00,,---,0.00,VWS V13.01,2013-02-01 01:56:00,
2013-02-01 04:01:00,50.7,31.2,30.01,SE,135,0.0,2.2,47,0.00,,---,0.00,VWS V13.01,2013-02-01 02:01:00,
2013-02-01 04:06:00,50.5,31.0,30.00,ESE,112,0.0,2.5,47,0.00,,---,0.00,VWS V13.01,2013-02-01 02:06:00,
2013-02-01 04:11:00,50.4,31.5,30.01,East,90,0.0,2.0,48,0.00,,---,0.00,VWS V13.01,2013-02-01 02:11:00,
2013-02-01 04:16:00,50.2,31.3,30.01,East,90,0.0,2.0,48,0.00,,---,0.00,VWS V13.01,2013-02-01 02:16:00,
2013-02-01 04:21:00,50.0,31.1,30.01,NNW,337,1.3,1.3,48,0.00,,---,0.00,VWS V13.01,2013-02-01 02:21:00,
2013-02-01 04:26:00,49.8,31.4,30.01,NNE,22,0.0,1.3,49,0.00,,---,0.00,VWS V13.01,2013-02-01 02:26:00,
2013-02-01 04:31:00,49.6,31.2,30.01,ENE,67,0.0,0.9,49,0.00,,---,0.00,VWS V13.01,2013-02-01 02:31:00,
2013-02-01 04:36:00,49.3,31.5,30.01,ENE,67,0.0,2.0,50,0.00,,---,0.00,VWS V13.01,2013-02-01 02:36:00,
2013-02-01 04:41:00,48.9,31.1,30.01,ENE,67,1.6,3.1,50,0.00,,---,0.00,VWS V13.01,2013-02-01 02:41:00,
2013-02-01 04:46:00,48.7,30.9,30.02,SE,135,0.0,2.9,50,0.00,,---,0.00,VWS V13.01,2013-02-01 02:46:00,
2013-02-01 04:51:00,48.7,30.9,30.02,ENE,67,1.6,1.6,50,0.00,,---,0.00,VWS V13.01,2013-02-01 02:51:00,
2013-02-01 04:56:00,48.6,30.8,30.03,NNW,337,0.0,1.6,50,0.00,,---,0.00,VWS V13.01,2013-02-01 02:56:00,
2013-02-01 05:01:00,48.4,31.1,30.03,SSE,157,0.0,1.6,51,0.00,,---,0.00,VWS V13.01,2013-02-01 03:01:00,
2013-02-01 05:06:00,48.2,30.9,30.02,North,0,0.0,1.3,51,0.00,,---,0.00,VWS V13.01,2013-02-01 03:06:00,
2013-02-01 05:11:00,48.0,31.2,30.02,NW,315,0.0,1.1,52,0.00,,---,0.00,VWS V13.01,2013-02-01 03:11:00,
2013-02-01 05:16:00,47.8,31.0,30.02,NW,315,0.0,1.8,52,0.00,,---,0.00,VWS V13.01,2013-02-01 03:16:00,
2013-02-01 05:21:00,47.8,31.0,30.01,East,90,0.0,1.8,52,0.00,,---,0.00,VWS V13.01,2013-02-01 03:21:00,
2013-02-01 05:26:00,47.7,31.4,30.02,NE,45,0.0,1.6,53,0.00,,---,0.00,VWS V13.01,2013-02-01 03:26:00,
2013-02-01 05:31:00,47.5,31.2,30.02,ESE,112,0.0,1.3,53,0.00,,---,0.00,VWS V13.01,2013-02-01 03:31:00,
2013-02-01 05:36:00,47.3,31.5,30.02,SE,135,0.0,1.3,54,0.00,,---,0.00,VWS V13.01,2013-02-01 03:36:00,
2013-02-01 05:41:00,47.1,31.3,30.02,SSE,157,0.0,1.1,54,0.00,,---,0.00,VWS V13.01,2013-02-01 03:41:00,
2013-02-01 05:46:00,47.1,31.3,30.02,SE,135,0.0,1.1,54,0.00,,---,0.00,VWS V13.01,2013-02-01 03:46:00,
2013-02-01 05:51:00,46.9,31.6,30.02,NNE,22,0.0,0.7,55,0.00,,---,0.00,VWS V13.01,2013-02-01 03:51:00,
2013-02-01 05:56:00,46.8,31.5,30.02,NE,45,0.0,0.7,55,0.00,,---,0.00,VWS V13.01,2013-02-01 03:56:00,
2013-02-01 06:01:00,46.6,31.8,30.03,NNW,337,0.0,0.7,56,0.00,,---,0.00,VWS V13.01,2013-02-01 04:01:00,
2013-02-01 06:06:00,46.4,31.6,30.03,NNE,22,0.0,0.7,56,0.00,,---,0.00,VWS V13.01,2013-02-01 04:06:00,
2013-02-01 06:11:00,46.2,31.4,30.03,NE,45,0.0,0.7,56,0.00,,---,0.00,VWS V13.01,2013-02-01 04:11:00,
2013-02-01 06:16:00,46.2,31.4,30.03,ESE,112,0.0,0.7,56,0.00,,---,0.00,VWS V13.01,2013-02-01 04:16:00,
2013-02-01 06:21:00,46.0,31.6,30.03,ESE,112,0.0,0.7,57,0.00,,---,0.00,VWS V13.01,2013-02-01 04:21:00,
2013-02-01 06:26:00,45.9,31.5,30.02,SE,135,0.0,0.7,57,0.00,,---,0.00,VWS V13.01,2013-02-01 04:26:00,
2013-02-01 06:31:00,45.7,31.8,30.02,SE,135,0.0,0.7,58,0.00,,---,0.00,VWS V13.01,2013-02-01 04:31:00,
2013-02-01 06:36:00,45.7,31.8,30.02,NE,45,0.0,1.8,58,0.00,,---,0.00,VWS V13.01,2013-02-01 04:36:00,
2013-02-01 06:41:00,45.7,32.2,30.03,ESE,112,0.0,1.8,59,0.00,,---,0.00,VWS V13.01,2013-02-01 04:41:00,
2013-02-01 06:47:00,45.5,32.0,30.03,East,90,0.0,1.8,59,0.00,,---,0.00,VWS V13.01,2013-02-01 04:47:00,
2013-02-01 06:52:00,45.3,32.2,30.03,ENE,67,0.0,1.8,60,0.00,,---,0.00,VWS V13.01,2013-02-01 04:52:00,
2013-02-01 06:57:00,45.3,32.2,30.03,East,90,0.0,1.8,60,0.00,,---,0.00,VWS V13.01,2013-02-01 04:57:00,
2013-02-01 07:00:00,45.1,32.1,30.03,East,90,0.0,1.8,60,0.00,,---,0.00,VWS V13.01,2013-02-01 05:00:00,
2013-02-01 07:01:00,45.1,32.1,30.02,ENE,67,0.0,1.8,60,0.00,,---,0.00,VWS V13.01,2013-02-01 05:01:00,
2013-02-01 07:03:00,45.1,32.1,30.02,ENE,67,0.0,1.8,60,0.00,,---,0.00,VWS V13.01,2013-02-01 05:03:00,
2013-02-01 07:08:00,45.0,32.0,30.03,ENE,67,0.0,1.8,60,0.00,,---,0.00,VWS V13.01,2013-02-01 05:08:00,
2013-02-01 07:13:00,44.8,31.8,30.03,East,90,0.0,1.8,60,0.00,,---,0.00,VWS V13.01,2013-02-01 05:13:00,
2013-02-01 07:18:00,44.8,31.8,30.02,NNE,22,0.0,1.8,60,0.00,,---,0.00,VWS V13.01,2013-02-01 05:18:00,
2013-02-01 07:23:00,44.6,32.0,30.03,NE,45,0.0,1.8,61,0.00,,---,0.00,VWS V13.01,2013-02-01 05:23:00,
2013-02-01 07:28:00,44.4,31.8,30.03,NE,45,0.0,1.8,61,0.00,,---,0.00,VWS V13.01,2013-02-01 05:28:00,
2013-02-01 07:33:00,44.4,31.8,30.03,NE,45,0.0,1.8,61,0.00,,---,0.00,VWS V13.01,2013-02-01 05:33:00,
2013-02-01 07:38:00,44.4,32.2,30.03,NNW,337,0.0,1.8,62,0.00,,---,0.00,VWS V13.01,2013-02-01 05:38:00,
2013-02-01 07:43:00,44.4,32.2,30.03,NNE,22,0.0,1.3,62,0.00,,---,0.00,VWS V13.01,2013-02-01 05:43:00,
2013-02-01 07:48:00,44.2,32.4,30.03,North,0,0.0,1.3,63,0.00,,---,0.00,VWS V13.01,2013-02-01 05:48:00,
2013-02-01 07:53:00,44.2,32.4,30.03,NNW,337,1.6,2.2,63,0.00,,---,0.00,VWS V13.01,2013-02-01 05:53:00,
2013-02-01 07:58:00,44.1,32.3,30.03,NNE,22,0.0,2.7,63,0.00,,---,0.00,VWS V13.01,2013-02-01 05:58:00,
2013-02-01 08:03:00,44.1,32.7,30.03,NE,45,0.0,3.6,64,0.00,,---,0.00,VWS V13.01,2013-02-01 06:03:00,
2013-02-01 08:08:00,44.1,32.7,30.03,NNW,337,1.3,1.6,64,0.00,,---,0.00,VWS V13.01,2013-02-01 06:08:00,
2013-02-01 08:13:00,43.9,32.5,30.03,NNE,22,0.0,1.6,64,0.00,,---,0.00,VWS V13.01,2013-02-01 06:13:00,
2013-02-01 08:18:00,43.9,32.5,30.03,WNW,292,0.0,1.3,64,0.00,,---,0.00,VWS V13.01,2013-02-01 06:18:00,
2013-02-01 08:23:00,43.9,32.5,30.03,NNW,337,0.0,1.6,64,0.00,,---,0.00,VWS V13.01,2013-02-01 06:23:00,
2013-02-01 08:28:00,44.1,32.7,30.03,NNW,337,0.0,1.3,64,0.00,,---,0.00,VWS V13.01,2013-02-01 06:28:00,
2013-02-01 08:33:00,44.2,32.8,30.04,South,180,0.0,1.3,64,0.00,,---,0.00,VWS V13.01,2013-02-01 06:33:00,
2013-02-01 08:38:00,44.4,33.4,30.04,West,270,0.0,1.1,65,0.00,,---,0.00,VWS V13.01,2013-02-01 06:38:00,
2013-02-01 08:43:00,44.8,33.8,30.04,NNW,337,0.0,1.1,65,0.00,,---,0.00,VWS V13.01,2013-02-01 06:43:00,
2013-02-01 08:48:00,45.0,34.0,30.04,NNW,337,0.0,1.1,65,0.00,,---,0.00,VWS V13.01,2013-02-01 06:48:00,
2013-02-01 08:53:00,45.1,34.0,30.04,North,0,0.0,1.3,65,0.00,,---,0.00,VWS V13.01,2013-02-01 06:53:00,
2013-02-01 08:58:00,45.3,34.2,30.04,NNE,22,0.0,2.0,65,0.00,,---,0.02,VWS V13.01,2013-02-01 06:58:00,
2013-02-01 09:03:00,45.7,34.6,30.03,NNW,337,0.0,2.0,65,0.00,,---,0.00,VWS V13.01,2013-02-01 07:03:00,
2013-02-01 09:08:00,46.0,34.9,30.03,NNW,337,1.3,1.3,65,0.00,,---,0.00,VWS V13.01,2013-02-01 07:08:00,
2013-02-01 09:13:00,46.2,34.7,30.03,North,0,0.0,1.3,64,0.00,,---,0.00,VWS V13.01,2013-02-01 07:13:00,
2013-02-01 09:18:00,46.6,35.1,30.03,North,0,0.0,1.6,64,0.00,,---,0.00,VWS V13.01,2013-02-01 07:18:00,
2013-02-01 09:23:00,47.1,35.6,30.03,North,0,0.0,1.6,64,0.00,,---,0.00,VWS V13.01,2013-02-01 07:23:00,
2013-02-01 09:28:00,47.5,35.5,30.03,North,0,0.0,1.6,63,0.00,,---,0.00,VWS V13.01,2013-02-01 07:28:00,
2013-02-01 09:33:00,47.8,35.8,30.03,North,0,0.0,1.6,63,0.00,,---,0.00,VWS V13.01,2013-02-01 07:33:00,
2013-02-01 09:38:00,48.4,35.6,30.03,North,0,0.0,1.3,61,0.00,,---,0.00,VWS V13.01,2013-02-01 07:38:00,
2013-02-01 09:43:00,48.7,35.5,30.03,North,0,0.0,1.3,60,0.00,,---,0.00,VWS V13.01,2013-02-01 07:43:00,
2013-02-01 09:49:00,49.3,36.0,30.03,ENE,67,0.0,1.3,60,0.00,,---,0.00,VWS V13.01,2013-02-01 07:49:00,
2013-02-01 09:54:00,49.8,36.5,30.04,East,90,1.3,1.8,60,0.00,,---,0.00,VWS V13.01,2013-02-01 07:54:00,
2013-02-01 09:59:00,50.7,36.5,30.03,ESE,112,0.0,2.5,58,0.00,,---,0.00,VWS V13.01,2013-02-01 07:59:00,
2013-02-01 10:04:00,51.6,36.9,30.04,South,180,0.0,2.5,57,0.00,,---,0.00,VWS V13.01,2013-02-01 08:04:00,
2013-02-01 10:09:00,52.3,37.1,30.04,East,90,0.0,2.5,56,0.00,,---,0.00,VWS V13.01,2013-02-01 08:09:00,
2013-02-01 10:14:00,52.9,36.7,30.03,SE,135,0.0,1.3,54,0.00,,---,0.00,VWS V13.01,2013-02-01 08:14:00,
2013-02-01 10:19:00,53.4,36.7,30.03,West,270,0.0,1.1,53,0.00,,---,0.00,VWS V13.01,2013-02-01 08:19:00,
2013-02-01 10:24:00,54.0,36.3,30.03,South,180,0.0,1.8,51,0.00,,---,0.00,VWS V13.01,2013-02-01 08:24:00,
2013-02-01 10:29:00,54.3,36.1,30.03,SE,135,0.0,2.9,50,0.00,,---,0.00,VWS V13.01,2013-02-01 08:29:00,
2013-02-01 10:34:00,55.0,36.2,30.03,SSE,157,1.1,4.3,49,0.00,,---,0.00,VWS V13.01,2013-02-01 08:34:00,
2013-02-01 10:39:00,55.4,36.1,30.04,SE,135,0.0,1.3,48,0.00,,---,0.00,VWS V13.01,2013-02-01 08:39:00,
2013-02-01 10:44:00,55.9,36.0,30.03,SE,135,0.0,1.1,47,0.00,,---,0.00,VWS V13.01,2013-02-01 08:44:00,
2013-02-01 10:49:00,56.3,35.8,30.03,SSE,157,0.0,1.1,46,0.00,,---,0.00,VWS V13.01,2013-02-01 08:49:00,
2013-02-01 10:54:00,56.8,36.3,30.03,South,180,1.3,2.2,46,0.00,,---,0.00,VWS V13.01,2013-02-01 08:54:00,
2013-02-01 10:59:00,57.4,36.2,30.04,SSW,202,1.6,2.0,45,0.00,,---,0.00,VWS V13.01,2013-02-01 08:59:00,
2013-02-01 11:04:00,57.6,35.9,30.03,South,180,4.7,4.7,44,0.00,,---,0.00,VWS V13.01,2013-02-01 09:04:00,
2013-02-01 11:09:00,57.9,35.6,30.02,SSW,202,7.2,7.2,43,0.00,,---,0.00,VWS V13.01,2013-02-01 09:09:00,
2013-02-01 11:14:00,58.1,35.2,30.03,South,180,0.0,5.8,42,0.00,,---,0.00,VWS V13.01,2013-02-01 09:14:00,
2013-02-01 11:19:00,58.3,35.3,30.02,SW,225,0.0,0.9,42,0.00,,---,0.00,VWS V13.01,2013-02-01 09:19:00,
2013-02-01 11:24:00,58.6,35.6,30.03,ESE,112,0.0,7.6,42,0.00,,---,0.00,VWS V13.01,2013-02-01 09:24:00,
2013-02-01 11:29:00,58.8,35.2,30.03,SSW,202,3.6,5.6,41,0.00,,---,0.00,VWS V13.01,2013-02-01 09:29:00,
2013-02-01 11:34:00,58.8,35.2,30.03,SSW,202,4.3,4.3,41,0.00,,---,0.00,VWS V13.01,2013-02-01 09:34:00,
2013-02-01 11:39:00,58.8,34.5,30.03,SSW,202,5.1,5.1,40,0.00,,---,0.00,VWS V13.01,2013-02-01 09:39:00,
2013-02-01 11:44:00,59.0,34.7,30.03,SE,135,0.0,2.0,40,0.00,,---,0.00,VWS V13.01,2013-02-01 09:44:00,
2013-02-01 11:49:00,59.2,34.9,30.03,South,180,1.1,1.3,40,0.00,,---,0.00,VWS V13.01,2013-02-01 09:49:00,
2013-02-01 11:54:00,59.2,34.9,30.03,South,180,6.0,6.0,40,0.00,,---,0.00,VWS V13.01,2013-02-01 09:54:00,
2013-02-01 11:59:00,59.4,35.1,30.03,SSE,157,3.6,3.8,40,0.00,,---,0.00,VWS V13.01,2013-02-01 09:59:00,
2013-02-01 12:04:00,59.4,34.5,30.02,SSW,202,3.6,9.2,39,0.00,,---,0.00,VWS V13.01,2013-02-01 10:04:00,
2013-02-01 12:09:00,59.5,34.5,30.02,South,180,1.1,2.9,39,0.00,,---,0.00,VWS V13.01,2013-02-01 10:09:00,
2013-02-01 12:14:00,59.5,34.5,30.02,SSW,202,3.8,8.1,39,0.00,,---,0.00,VWS V13.01,2013-02-01 10:14:00,
2013-02-01 12:19:00,59.5,34.5,30.02,SSW,202,0.0,1.1,39,0.00,,---,0.00,VWS V13.01,2013-02-01 10:19:00,
2013-02-01 12:24:00,59.5,34.5,30.02,SSE,157,0.9,0.9,39,0.00,,---,0.00,VWS V13.01,2013-02-01 10:24:00,
2013-02-01 12:29:00,59.4,34.5,30.01,South,180,5.4,10.5,39,0.00,,---,0.00,VWS V13.01,2013-02-01 10:29:00,
2013-02-01 12:34:00,59.2,34.9,30.01,SSE,157,2.2,4.7,40,0.00,,---,0.00,VWS V13.01,2013-02-01 10:34:00,
2013-02-01 12:39:00,59.2,34.9,30.01,SSW,202,8.3,12.8,40,0.00,,---,0.00,VWS V13.01,2013-02-01 10:39:00,
2013-02-01 12:45:00,59.2,34.9,30.01,SSW,202,3.4,3.4,40,0.00,,---,0.00,VWS V13.01,2013-02-01 10:45:00,
2013-02-01 12:50:00,59.2,34.9,30.01,SE,135,0.0,11.4,40,0.00,,---,0.00,VWS V13.01,2013-02-01 10:50:00,
2013-02-01 12:55:00,59.2,34.9,30.01,South,180,0.0,9.8,40,0.00,,---,0.00,VWS V13.01,2013-02-01 10:55:00,
2013-02-01 13:00:00,59.2,34.9,30.01,SE,135,5.1,9.4,40,0.00,,---,0.00,VWS V13.01,2013-02-01 11:00:00,
2013-02-01 13:05:00,59.4,35.1,30.01,SE,135,4.3,8.7,40,0.00,,---,0.00,VWS V13.01,2013-02-01 11:05:00,
2013-02-01 13:10:00,59.2,34.9,30.01,SSE,157,1.8,6.7,40,0.00,,---,0.00,VWS V13.01,2013-02-01 11:10:00,
2013-02-01 13:15:00,59.2,35.5,30.01,SW,225,3.6,4.9,41,0.00,,---,0.00,VWS V13.01,2013-02-01 11:15:00,
2013-02-01 13:20:00,59.4,35.7,30.00,SE,135,6.9,6.9,41,0.00,,---,0.00,VWS V13.01,2013-02-01 11:20:00,
2013-02-01 13:25:00,59.4,35.7,29.99,SSE,157,1.8,1.8,41,0.00,,---,0.00,VWS V13.01,2013-02-01 11:25:00,
2013-02-01 13:30:00,59.5,35.8,29.99,South,180,8.3,10.3,41,0.00,,---,0.00,VWS V13.01,2013-02-01 11:30:00,
2013-02-01 13:35:00,59.5,35.8,29.99,SSE,157,2.7,2.7,41,0.00,,---,0.00,VWS V13.01,2013-02-01 11:35:00,
2013-02-01 13:40:00,59.5,36.4,29.99,SSW,202,6.0,8.9,42,0.00,,---,0.00,VWS V13.01,2013-02-01 11:40:00,
2013-02-01 13:45:00,59.5,36.4,29.98,SSE,157,0.0,10.3,42,0.00,,---,0.00,VWS V13.01,2013-02-01 11:45:00,
2013-02-01 13:50:00,59.5,36.4,29.98,SSW,202,5.1,5.1,42,0.00,,---,0.00,VWS V13.01,2013-02-01 11:50:00,
2013-02-01 13:55:00,59.5,36.4,29.98,South,180,6.7,6.7,42,0.00,,---,0.00,VWS V13.01,2013-02-01 11:55:00,
2013-02-01 14:00:00,59.7,36.6,29.98,SW,225,0.0,6.9,42,0.00,,---,0.00,VWS V13.01,2013-02-01 12:00:00,
2013-02-01 14:05:00,59.7,36.6,29.98,SSE,157,4.7,9.6,42,0.00,,---,0.00,VWS V13.01,2013-02-01 12:05:00,
2013-02-01 14:10:00,59.9,36.8,29.97,South,180,9.2,9.4,42,0.00,,---,0.00,VWS V13.01,2013-02-01 12:10:00,
2013-02-01 14:15:00,59.7,36.6,29.97,East,90,0.0,5.4,42,0.00,,---,0.00,VWS V13.01,2013-02-01 12:15:00,
2013-02-01 14:20:00,59.9,36.8,29.97,South,180,10.5,10.5,42,0.00,,---,0.00,VWS V13.01,2013-02-01 12:20:00,
2013-02-01 14:25:00,59.9,36.8,29.97,SSW,202,3.1,8.3,42,0.00,,---,0.00,VWS V13.01,2013-02-01 12:25:00,
2013-02-01 14:30:00,59.9,37.4,29.97,South,180,0.0,4.3,43,0.00,,---,0.00,VWS V13.01,2013-02-01 12:30:00,
2013-02-01 14:35:00,60.1,37.0,29.96,SSE,157,8.3,10.1,42,0.00,,---,0.00,VWS V13.01,2013-02-01 12:35:00,
2013-02-01 14:40:00,60.1,37.0,29.96,SSE,157,7.4,9.8,42,0.00,,---,0.00,VWS V13.01,2013-02-01 12:40:00,
2013-02-01 14:45:00,60.1,37.0,29.96,SSW,202,7.8,9.4,42,0.00,,---,0.00,VWS V13.01,2013-02-01 12:45:00,
2013-02-01 14:50:00,60.1,37.0,29.96,South,180,7.6,7.6,42,0.00,,---,0.00,VWS V13.01,2013-02-01 12:50:00,
2013-02-01 14:55:00,59.9,36.8,29.96,South,180,9.8,9.8,42,0.00,,---,0.00,VWS V13.01,2013-02-01 12:55:00,
2013-02-01 15:00:00,59.7,37.2,29.96,SE,135,6.3,10.3,43,0.00,,---,0.00,VWS V13.01,2013-02-01 13:00:00,
2013-02-01 15:05:00,59.7,37.2,29.96,South,180,2.7,6.3,43,0.00,,---,0.00,VWS V13.01,2013-02-01 13:05:00,
2013-02-01 15:10:00,59.7,37.2,29.96,SSW,202,10.1,10.1,43,0.00,,---,0.00,VWS V13.01,2013-02-01 13:10:00,
2013-02-01 15:15:00,59.5,37.0,29.96,South,180,3.8,10.7,43,0.00,,---,0.00,VWS V13.01,2013-02-01 13:15:00,
2013-02-01 15:20:00,59.5,37.0,29.96,SSE,157,0.0,9.4,43,0.00,,---,0.00,VWS V13.01,2013-02-01 13:20:00,
2013-02-01 15:26:00,59.5,37.0,29.95,SSW,202,5.4,11.0,43,0.00,,---,0.00,VWS V13.01,2013-02-01 13:26:00,
2013-02-01 15:31:00,59.5,36.4,29.95,South,180,0.0,5.4,42,0.00,,---,0.00,VWS V13.01,2013-02-01 13:31:00,
2013-02-01 15:36:00,59.7,36.6,29.95,South,180,0.7,6.3,42,0.00,,---,0.00,VWS V13.01,2013-02-01 13:36:00,
2013-02-01 15:41:00,59.7,36.6,29.95,South,180,6.5,6.5,42,0.00,,---,0.00,VWS V13.01,2013-02-01 13:41:00,
2013-02-01 15:46:00,59.7,36.6,29.95,South,180,3.8,5.4,42,0.00,,---,0.00,VWS V13.01,2013-02-01 13:46:00,
2013-02-01 15:51:00,59.5,37.0,29.95,ESE,112,0.0,4.7,43,0.00,,---,0.00,VWS V13.01,2013-02-01 13:51:00,
2013-02-01 15:56:00,59.5,37.0,29.95,SW,225,7.4,9.6,43,0.00,,---,0.00,VWS V13.01,2013-02-01 13:56:00,
2013-02-01 16:01:00,59.5,37.0,29.95,West,270,1.3,1.3,43,0.00,,---,0.00,VWS V13.01,2013-02-01 14:01:00,
2013-02-01 16:06:00,59.5,37.6,29.95,SSE,157,5.8,9.2,44,0.00,,---,0.00,VWS V13.01,2013-02-01 14:06:00,
2013-02-01 16:11:00,59.5,37.6,29.94,South,180,7.4,9.2,44,0.00,,---,0.00,VWS V13.01,2013-02-01 14:11:00,
2013-02-01 16:16:00,59.5,37.6,29.94,SE,135,0.0,3.8,44,0.00,,---,0.00,VWS V13.01,2013-02-01 14:16:00,
2013-02-01 16:21:00,59.4,37.5,29.94,SSW,202,10.1,12.1,44,0.00,,---,0.00,VWS V13.01,2013-02-01 14:21:00,
2013-02-01 16:26:00,59.2,37.9,29.93,South,180,3.6,4.7,45,0.00,,---,0.00,VWS V13.01,2013-02-01 14:26:00,
2013-02-01 16:31:00,59.2,38.5,29.93,WSW,247,7.6,8.5,46,0.00,,---,0.00,VWS V13.01,2013-02-01 14:31:00,
2013-02-01 16:36:00,59.0,38.3,29.93,SSE,157,2.0,9.4,46,0.00,,---,0.00,VWS V13.01,2013-02-01 14:36:00,
2013-02-01 16:41:00,58.8,38.1,29.93,SE,135,0.0,3.4,46,0.00,,---,0.00,VWS V13.01,2013-02-01 14:41:00,
2013-02-01 16:46:00,58.8,38.1,29.92,SSW,202,8.3,9.8,46,0.00,,---,0.00,VWS V13.01,2013-02-01 14:46:00,
2013-02-01 16:51:00,58.6,38.5,29.93,South,180,7.6,8.9,47,0.00,,---,0.00,VWS V13.01,2013-02-01 14:51:00,
2013-02-01 16:56:00,58.5,38.4,29.93,South,180,3.4,7.8,47,0.00,,---,0.00,VWS V13.01,2013-02-01 14:56:00,
2013-02-01 17:01:00,58.3,38.2,29.93,SW,225,5.8,7.4,47,0.00,,---,0.00,VWS V13.01,2013-02-01 15:01:00,
2013-02-01 17:06:00,58.1,38.5,29.93,South,180,5.1,7.2,48,0.00,,---,0.00,VWS V13.01,2013-02-01 15:06:00,
2013-02-01 17:11:00,57.9,38.3,29.93,SSE,157,1.3,6.3,48,0.00,,---,0.00,VWS V13.01,2013-02-01 15:11:00,
2013-02-01 17:16:00,57.7,38.7,29.93,SE,135,2.5,4.5,49,0.00,,---,0.00,VWS V13.01,2013-02-01 15:16:00,
2013-02-01 17:21:00,57.6,38.6,29.93,South,180,0.0,4.0,49,0.00,,---,0.00,VWS V13.01,2013-02-01 15:21:00,
2013-02-01 17:26:00,57.4,38.9,29.93,South,180,0.9,0.9,50,0.00,,---,0.00,VWS V13.01,2013-02-01 15:26:00,
2013-02-01 17:31:00,57.4,39.4,29.93,South,180,3.8,3.8,51,0.00,,---,0.00,VWS V13.01,2013-02-01 15:31:00,
2013-02-01 17:36:00,57.0,39.1,29.93,SE,135,0.0,3.8,51,0.00,,---,0.00,VWS V13.01,2013-02-01 15:36:00,
2013-02-01 17:41:00,56.8,38.9,29.93,South,180,1.6,4.3,51,0.00,,---,0.00,VWS V13.01,2013-02-01 15:41:00,
2013-02-01 17:46:00,56.7,39.3,29.93,SSW,202,2.0,2.0,52,0.00,,---,0.00,VWS V13.01,2013-02-01 15:46:00,
2013-02-01 17:51:00,56.5,39.1,29.93,SSW,202,0.0,4.7,52,0.00,,---,0.00,VWS V13.01,2013-02-01 15:51:00,
2013-02-01 17:56:00,56.3,39.4,29.93,South,180,0.0,5.1,53,0.00,,---,0.00,VWS V13.01,2013-02-01 15:56:00,
2013-02-01 18:01:00,56.1,39.2,29.93,SSW,202,2.7,4.5,53,0.00,,---,0.00,VWS V13.01,2013-02-01 16:01:00,
2013-02-01 18:07:00,55.9,39.0,29.92,SSW,202,2.0,2.0,53,0.00,,---,0.00,VWS V13.01,2013-02-01 16:07:00,
2013-02-01 18:12:00,55.8,39.4,29.92,South,180,0.7,1.1,54,0.00,,---,0.00,VWS V13.01,2013-02-01 16:12:00,
2013-02-01 18:17:00,55.6,39.2,29.93,South,180,0.0,1.6,54,0.00,,---,0.00,VWS V13.01,2013-02-01 16:17:00,
2013-02-01 18:22:00,55.2,39.3,29.93,WSW,247,0.0,3.1,55,0.00,,---,0.00,VWS V13.01,2013-02-01 16:22:00,
2013-02-01 18:27:00,55.2,39.3,29.93,South,180,0.0,3.1,55,0.00,,---,0.00,VWS V13.01,2013-02-01 16:27:00,
2013-02-01 18:32:00,54.9,39.5,29.92,ESE,112,0.0,3.1,56,0.00,,---,0.00,VWS V13.01,2013-02-01 16:32:00,
2013-02-01 18:37:00,54.7,39.8,29.93,SE,135,0.0,3.1,57,0.00,,---,0.00,VWS V13.01,2013-02-01 16:37:00,
2013-02-01 18:42:00,54.3,39.4,29.92,SSW,202,0.0,3.1,57,0.00,,---,0.00,VWS V13.01,2013-02-01 16:42:00,
2013-02-01 18:47:00,54.0,39.6,29.92,SW,225,0.0,3.1,58,0.00,,---,0.00,VWS V13.01,2013-02-01 16:47:00,
2013-02-01 18:52:00,53.8,39.8,29.92,SW,225,0.0,3.1,59,0.00,,---,0.00,VWS V13.01,2013-02-01 16:52:00,
2013-02-01 18:57:00,53.6,39.6,29.92,SSW,202,0.0,1.8,59,0.00,,---,0.00,VWS V13.01,2013-02-01 16:57:00,
2013-02-01 19:02:00,53.4,39.5,29.92,SE,135,0.0,1.1,59,0.00,,---,0.00,VWS V13.01,2013-02-01 17:02:00,
2013-02-01 19:07:00,53.4,39.5,29.92,West,270,0.0,1.1,59,0.00,,---,0.00,VWS V13.01,2013-02-01 17:07:00,
2013-02-01 19:12:00,53.2,39.7,29.92,WSW,247,0.0,1.1,60,0.00,,---,0.00,VWS V13.01,2013-02-01 17:12:00,
2013-02-01 19:17:00,53.2,39.7,29.92,West,270,0.0,1.1,60,0.00,,---,0.00,VWS V13.01,2013-02-01 17:17:00,
2013-02-01 19:22:00,53.2,40.1,29.92,NW,315,0.0,1.1,61,0.00,,---,0.00,VWS V13.01,2013-02-01 17:22:00,
2013-02-01 19:27:00,53.1,40.0,29.92,NW,315,0.0,1.1,61,0.00,,---,0.00,VWS V13.01,2013-02-01 17:27:00,
2013-02-01 19:32:00,52.9,40.2,29.92,SSW,202,0.0,1.1,62,0.00,,---,0.00,VWS V13.01,2013-02-01 17:32:00,
2013-02-01 19:37:00,52.7,40.1,29.92,NNW,337,0.0,1.1,62,0.00,,---,0.00,VWS V13.01,2013-02-01 17:37:00,
2013-02-01 19:42:00,52.3,40.1,29.92,North,0,0.0,1.1,63,0.00,,---,0.00,VWS V13.01,2013-02-01 17:42:00,
2013-02-01 19:47:00,52.3,40.1,29.92,North,0,0.0,1.1,63,0.00,,---,0.00,VWS V13.01,2013-02-01 17:47:00,
2013-02-01 19:52:00,52.2,40.0,29.91,NNW,337,0.0,1.1,63,0.00,,---,0.00,VWS V13.01,2013-02-01 17:52:00,
2013-02-01 19:57:00,52.0,39.8,29.92,NNE,22,0.0,1.1,63,0.00,,---,0.00,VWS V13.01,2013-02-01 17:57:00,
2013-02-01 20:02:00,52.0,40.2,29.91,NNE,22,1.6,3.1,64,0.00,,---,0.00,VWS V13.01,2013-02-01 18:02:00,
2013-02-01 20:07:00,51.6,39.8,29.91,ENE,67,0.0,2.0,64,0.00,,---,0.00,VWS V13.01,2013-02-01 18:07:00,
2013-02-01 20:12:00,51.6,39.8,29.91,NE,45,0.0,2.0,64,0.00,,---,0.00,VWS V13.01,2013-02-01 18:12:00,
2013-02-01 20:17:00,51.6,39.8,29.91,ENE,67,0.0,2.0,64,0.00,,---,0.00,VWS V13.01,2013-02-01 18:17:00,
2013-02-01 20:22:00,51.4,39.7,29.90,NNE,22,0.0,2.0,64,0.00,,---,0.00,VWS V13.01,2013-02-01 18:22:00,
2013-02-01 20:27:00,51.3,39.5,29.90,NNE,22,0.0,1.6,64,0.00,,---,0.00,VWS V13.01,2013-02-01 18:27:00,
2013-02-01 20:32:00,51.1,39.4,29.90,NNW,337,0.0,1.1,64,0.00,,---,0.00,VWS V13.01,2013-02-01 18:32:00,
2013-02-01 20:37:00,50.9,39.6,29.90,North,0,0.0,1.1,65,0.00,,---,0.00,VWS V13.01,2013-02-01 18:37:00,
2013-02-01 20:42:00,50.7,39.4,29.90,North,0,0.0,4.3,65,0.00,,---,0.00,VWS V13.01,2013-02-01 18:42:00,
2013-02-01 20:47:00,50.7,39.4,29.90,NE,45,0.0,1.6,65,0.00,,---,0.00,VWS V13.01,2013-02-01 18:47:00,
2013-02-01 20:53:00,50.5,39.2,29.90,North,0,1.6,1.6,65,0.00,,---,0.00,VWS V13.01,2013-02-01 18:53:00,
2013-02-01 20:58:00,50.5,39.2,29.90,North,0,2.0,4.5,65,0.00,,---,0.00,VWS V13.01,2013-02-01 18:58:00,
2013-02-01 21:03:00,50.4,39.1,29.90,NNW,337,2.0,2.0,65,0.00,,---,0.00,VWS V13.01,2013-02-01 19:03:00,
2013-02-01 21:08:00,50.2,38.9,29.90,North,0,1.3,2.5,65,0.00,,---,0.00,VWS V13.01,2013-02-01 19:08:00,
2013-02-01 21:13:00,50.2,38.9,29.90,NNE,22,0.0,2.0,65,0.00,,---,0.00,VWS V13.01,2013-02-01 19:13:00,
2013-02-01 21:18:00,49.8,38.5,29.89,ESE,112,0.0,2.0,65,0.00,,---,0.00,VWS V13.01,2013-02-01 19:18:00,
2013-02-01 21:23:00,49.8,38.5,29.89,SE,135,0.0,2.0,65,0.00,,---,0.00,VWS V13.01,2013-02-01 19:23:00,
2013-02-01 21:28:00,49.8,38.5,29.90,East,90,0.0,2.0,65,0.00,,---,0.00,VWS V13.01,2013-02-01 19:28:00,
2013-02-01 21:33:00,49.6,38.3,29.89,North,0,0.0,2.0,65,0.00,,---,0.00,VWS V13.01,2013-02-01 19:33:00,
2013-02-01 21:38:00,49.6,38.3,29.90,West,270,0.0,2.0,65,0.00,,---,0.00,VWS V13.01,2013-02-01 19:38:00,
2013-02-01 21:43:00,49.6,38.3,29.90,NNW,337,0.0,2.0,65,0.00,,---,0.00,VWS V13.01,2013-02-01 19:43:00,
2013-02-01 21:48:00,49.6,38.7,29.90,NNW,337,0.0,2.0,66,0.00,,---,0.00,VWS V13.01,2013-02-01 19:48:00,
2013-02-01 21:53:00,49.6,38.7,29.90,NNW,337,0.0,2.0,66,0.00,,---,0.00,VWS V13.01,2013-02-01 19:53:00,
2013-02-01 21:58:00,49.6,38.7,29.89,North,0,0.0,2.0,66,0.00,,---,0.00,VWS V13.01,2013-02-01 19:58:00,
2013-02-01 22:03:00,49.6,39.1,29.90,NNE,22,0.0,2.0,67,0.00,,---,0.00,VWS V13.01,2013-02-01 20:03:00,
2013-02-01 22:08:00,49.3,38.8,29.90,NE,45,0.0,2.0,67,0.00,,---,0.00,VWS V13.01,2013-02-01 20:08:00,
2013-02-01 22:13:00,49.3,38.8,29.89,NE,45,0.0,2.0,67,0.00,,---,0.00,VWS V13.01,2013-02-01 20:13:00,
2013-02-01 22:18:00,49.3,39.2,29.88,NE,45,0.0,2.0,68,0.00,,---,0.00,VWS V13.01,2013-02-01 20:18:00,
2013-02-01 22:23:00,49.1,39.0,29.89,ESE,112,0.0,2.0,68,0.00,,---,0.00,VWS V13.01,2013-02-01 20:23:00,
2013-02-01 22:28:00,48.9,38.8,29.88,NE,45,0.0,2.0,68,0.00,,---,0.00,VWS V13.01,2013-02-01 20:28:00,
2013-02-01 22:33:00,48.9,38.8,29.88,North,0,0.0,2.0,68,0.00,,---,0.00,VWS V13.01,2013-02-01 20:33:00,
2013-02-01 22:38:00,48.7,38.6,29.88,ENE,67,0.0,2.0,68,0.00,,---,0.00,VWS V13.01,2013-02-01 20:38:00,
2013-02-01 22:43:00,48.7,38.6,29.88,East,90,0.0,2.0,68,0.00,,---,0.00,VWS V13.01,2013-02-01 20:43:00,
2013-02-01 22:48:00,48.7,39.0,29.88,NNW,337,0.0,2.0,69,0.00,,---,0.00,VWS V13.01,2013-02-01 20:48:00,
2013-02-01 22:53:00,48.6,38.9,29.88,NNW,337,0.0,2.0,69,0.00,,---,0.00,VWS V13.01,2013-02-01 20:53:00,
2013-02-01 22:58:00,48.6,38.9,29.88,East,90,0.0,2.0,69,0.00,,---,0.00,VWS V13.01,2013-02-01 20:58:00,
2013-02-01 23:03:00,48.6,38.9,29.88,ESE,112,0.0,2.0,69,0.00,,---,0.00,VWS V13.01,2013-02-01 21:03:00,
2013-02-01 23:08:00,48.4,39.1,29.88,NNW,337,0.0,2.0,70,0.00,,---,0.00,VWS V13.01,2013-02-01 21:08:00,
2013-02-01 23:14:00,48.4,39.1,29.88,North,0,0.0,2.0,70,0.00,,---,0.00,VWS V13.01,2013-02-01 21:14:00,
2013-02-01 23:19:00,48.4,39.1,29.88,West,270,0.0,2.0,70,0.00,,---,0.00,VWS V13.01,2013-02-01 21:19:00,
2013-02-01 23:24:00,48.2,38.9,29.87,SE,135,0.0,2.0,70,0.00,,---,0.00,VWS V13.01,2013-02-01 21:24:00,
2013-02-01 23:29:00,48.2,39.2,29.88,NNW,337,0.0,2.0,71,0.00,,---,0.00,VWS V13.01,2013-02-01 21:29:00,
2013-02-01 23:34:00,48.0,39.1,29.88,NNW,337,0.0,2.0,71,0.00,,---,0.00,VWS V13.01,2013-02-01 21:34:00,
2013-02-01 23:39:00,48.0,39.1,29.88,North,0,0.0,2.0,71,0.00,,---,0.00,VWS V13.01,2013-02-01 21:39:00,
2013-02-01 23:44:00,48.0,39.4,29.88,North,0,0.0,2.0,72,0.00,,---,0.00,VWS V13.01,2013-02-01 21:44:00,
2013-02-01 23:49:00,48.0,39.4,29.87,ESE,112,0.0,2.0,72,0.00,,---,0.00,VWS V13.01,2013-02-01 21:49:00,
2013-02-01 23:54:00,47.8,39.2,29.88,ESE,112,0.0,2.0,72,0.00,,---,0.00,VWS V13.01,2013-02-01 21:54:00,
2013-02-01 23:59:00,47.8,39.2,29.88,NNW,337,0.0,2.0,72,0.00,,---,0.00,VWS V13.01,2013-02-01 21:59:00,